Location: ??????
(38.0131°N, 23.7723°E)
Time: 19:18:25
(UTC+00:00)

Okean-O - Pass Details

Date: 25 May 2022
Orbit: 638 x 640 km, 98.1° (Epoch: 25 June)

Event Time Altitude Azimuth Distance (km) Brightness Sun altitude
Rises 18:17:35 0° 175° (S) 2,928 5.6 -7.7°
Reaches altitude 10° 18:19:48 10° 179° (S) 2,023 4.9 -8.1°
Maximum altitude 18:24:09 59° 259° (W) 744 3.2 -8.8°
Drops below altitude 10° 18:28:32 10° 339° (NNW) 2,037 6.2 -9.5°
Sets 18:30:47 0° 343° (NNW) 2,950 7.0 -9.8°
